Location: Carthage
(33.8834°N, 106.6595°W)
Time: 12:29:08
(UTC+00:00)

Cosmos 1777 Rocket - Pass Details

Date: 13 February 2026
Orbit: 753 x 771 km, 74.0° (Epoch: 11 March)

Event Time Altitude Azimuth Distance (km) Brightness Sun altitude
Exits shadow 12:33:06 27° 251° (WSW) 1,434 4.9 -17.1°
Maximum altitude 12:35:02 35° 292° (WNW) 1,194 4.5 -16.7°
Drops below altitude 10° 12:39:46 10° 358° (N) 2,283 6.4 -15.8°
Sets 12:42:20 0° 8° (N) 3,214 7.3 -15.2°
